TimeCST,TemperatureF,Dew PointF,Humidity,Sea Level PressureIn,VisibilityMPH,Wind Direction,Wind SpeedMPH,Gust SpeedMPH,PrecipitationIn,Events,Conditions,WindDirDegrees,DateUTC
12:53 AM,32.0,30.9,96,30.05,6.0,Calm,Calm,-,N/A,,Clear,0,2014-01-26 06:53:00
1:30 AM,32.0,30.0,92,30.04,0.8,Calm,Calm,-,N/A,,Clear,0,2014-01-26 07:30:00
1:41 AM,32.0,30.0,92,30.04,2.0,Calm,Calm,-,N/A,,Clear,0,2014-01-26 07:41:00
1:48 AM,32.0,30.2,93,30.04,6.0,Calm,Calm,-,N/A,,Clear,0,2014-01-26 07:48:00
1:53 AM,32.0,30.0,92,30.04,5.0,Calm,Calm,-,N/A,,Clear,0,2014-01-26 07:53:00
2:53 AM,32.0,30.0,92,30.05,9.0,Calm,Calm,-,N/A,,Clear,0,2014-01-26 08:53:00
3:53 AM,30.9,28.9,92,30.04,7.0,Calm,Calm,-,N/A,,Clear,0,2014-01-26 09:53:00
4:38 AM,30.0,28.0,92,30.05,9.0,Calm,Calm,-,N/A,,Partly Cloudy,0,2014-01-26 10:38:00
4:53 AM,30.0,28.9,96,30.05,8.0,Calm,Calm,-,N/A,,Partly Cloudy,0,2014-01-26 10:53:00
5:53 AM,30.9,28.9,92,30.06,7.0,Calm,Calm,-,N/A,,Partly Cloudy,0,2014-01-26 11:53:00
6:53 AM,32.0,30.0,92,30.07,7.0,Calm,Calm,-,N/A,,Clear,0,2014-01-26 12:53:00
7:53 AM,35.1,33.1,92,30.08,6.0,Calm,Calm,-,N/A,,Clear,0,2014-01-26 13:53:00
8:53 AM,41.0,37.9,89,30.09,8.0,Calm,Calm,-,N/A,,Clear,0,2014-01-26 14:53:00
9:53 AM,52.0,35.1,53,30.10,10.0,ESE,3.5,-,N/A,,Clear,120,2014-01-26 15:53:00
10:53 AM,57.0,28.0,33,30.09,10.0,South,8.1,-,N/A,,Clear,190,2014-01-26 16:53:00
11:53 AM,57.9,28.0,32,30.05,10.0,South,8.1,-,N/A,,Clear,170,2014-01-26 17:53:00
12:53 PM,59.0,37.0,44,30.01,10.0,South,5.8,-,N/A,,Clear,190,2014-01-26 18:53:00
1:53 PM,59.0,41.0,51,29.98,10.0,South,10.4,-,N/A,,Clear,190,2014-01-26 19:53:00
2:53 PM,57.9,39.9,51,29.95,10.0,South,8.1,-,N/A,,Clear,180,2014-01-26 20:53:00
3:53 PM,59.0,42.1,53,29.94,10.0,South,8.1,-,N/A,,Clear,180,2014-01-26 21:53:00
4:53 PM,57.0,45.0,64,29.95,10.0,South,5.8,-,N/A,,Clear,170,2014-01-26 22:53:00
5:53 PM,55.0,43.0,64,29.96,10.0,Calm,Calm,-,N/A,,Clear,0,2014-01-26 23:53:00
6:53 PM,53.1,43.0,69,29.96,10.0,Calm,Calm,-,N/A,,Clear,0,2014-01-27 00:53:00
7:53 PM,48.0,42.1,80,29.97,10.0,Calm,Calm,-,N/A,,Clear,0,2014-01-27 01:53:00
8:53 PM,44.1,41.0,89,29.96,10.0,Calm,Calm,-,N/A,,Clear,0,2014-01-27 02:53:00
9:53 PM,45.0,42.1,90,29.98,10.0,Calm,Calm,-,N/A,,Clear,0,2014-01-27 03:53:00
10:53 PM,46.0,43.0,89,29.97,10.0,Calm,Calm,-,N/A,,Overcast,0,2014-01-27 04:53:00
11:22 PM,46.0,42.1,86,29.97,10.0,Calm,Calm,-,N/A,,Overcast,0,2014-01-27 05:22:00
11:53 PM,46.9,42.1,83,29.96,10.0,Calm,Calm,-,N/A,,Overcast,0,2014-01-27 05:53:00